Total_Precipitation_Accumulation
0.02 0.05 0.23 0.31 0.27 0.27 0.26 0.26 0.26 0.24 0.26 0.29 0.26 0.25 0.25 0.25 0.25 0.25 0.26 0.25 0.25 0.28 0.34 0.40 0.40 0.40 0.39 0.34 0.27 0.27 0.28 0.27 0.25 0.25 0.27 0.30 0.28 0.25 0.22 0.21 0.21 0.23 0.35
0.04 0.06 0.19 0.23 0.24 0.26 0.28 0.28 0.24 0.20 0.22 0.24 0.22 0.20 0.22 0.23 0.24 0.25 0.26 0.27 0.29 0.32 0.33 0.35 0.34 0.35 0.31 0.28 0.26 0.24 0.23 0.21 0.18 0.16 0.14 0.17 0.25 0.29 0.27 0.26 0.23 0.28 0.31
0.03 0.05 0.14 0.19 0.22 0.26 0.28 0.25 0.21 0.18 0.19 0.20 0.19 0.20 0.23 0.21 0.21 0.23 0.24 0.26 0.31 0.36 0.34 0.32 0.32 0.33 0.29 0.26 0.26 0.24 0.23 0.17 0.13 0.12 0.11 0.13 0.25 0.35 0.32 0.29 0.26 0.31 0.32
0.01 0.03 0.09 0.17 0.22 0.26 0.27 0.24 0.20 0.19 0.19 0.20 0.19 0.20 0.22 0.20 0.20 0.20 0.20 0.24 0.30 0.37 0.40 0.39 0.37 0.34 0.29 0.26 0.26 0.23 0.27 0.19 0.10 0.09 0.06 0.11 0.27 0.43 0.39 0.35 0.30 0.32 0.33
0.01 0.03 0.09 0.18 0.23 0.26 0.28 0.26 0.22 0.21 0.21 0.22 0.22 0.22 0.25 0.22 0.20 0.18 0.17 0.18 0.25 0.32 0.38 0.41 0.37 0.33 0.31 0.28 0.25 0.24 0.31 0.25 0.12 0.06 0.04 0.10 0.23 0.44 0.39 0.37 0.34 0.32 0.32
0.02 0.03 0.10 0.19 0.25 0.28 0.29 0.28 0.25 0.24 0.25 0.26 0.27 0.28 0.30 0.27 0.23 0.19 0.16 0.14 0.16 0.21 0.29 0.34 0.32 0.33 0.34 0.29 0.24 0.28 0.38 0.34 0.13 0.04 0.07 0.12 0.19 0.44 0.48 0.42 0.37 0.34 0.34
0.02 0.04 0.12 0.22 0.28 0.30 0.31 0.30 0.30 0.29 0.30 0.31 0.32 0.35 0.36 0.31 0.26 0.22 0.18 0.15 0.12 0.13 0.18 0.23 0.27 0.31 0.34 0.30 0.29 0.37 0.46 0.34 0.11 0.08 0.09 0.12 0.21 0.55 0.72 0.59 0.43 0.37 0.34
0.02 0.06 0.15 0.27 0.31 0.34 0.35 0.35 0.35 0.36 0.37 0.37 0.38 0.40 0.40 0.35 0.31 0.27 0.24 0.19 0.15 0.14 0.13 0.15 0.20 0.25 0.29 0.30 0.32 0.36 0.40 0.23 0.08 0.07 0.09 0.11 0.25 0.64 0.79 0.73 0.57 0.44 0.38
0.04 0.08 0.16 0.27 0.32 0.37 0.39 0.38 0.40 0.41 0.42 0.43 0.42 0.42 0.41 0.38 0.37 0.35 0.29 0.23 0.21 0.19 0.17 0.13 0.13 0.15 0.18 0.22 0.27 0.28 0.26 0.16 0.07 0.12 0.11 0.15 0.28 0.66 0.80 0.80 0.72 0.56 0.44
0.08 0.12 0.18 0.27 0.33 0.37 0.40 0.42 0.42 0.44 0.47 0.49 0.49 0.45 0.40 0.41 0.42 0.38 0.30 0.24 0.24 0.24 0.21 0.18 0.15 0.12 0.11 0.12 0.14 0.15 0.12 0.08 0.05 0.13 0.22 0.22 0.26 0.57 0.79 0.80 0.74 0.67 0.54
0.14 0.17 0.24 0.33 0.37 0.40 0.44 0.45 0.49 0.53 0.57 0.60 0.57 0.52 0.50 0.46 0.42 0.34 0.27 0.25 0.26 0.25 0.22 0.21 0.20 0.15 0.11 0.06 0.05 0.05 0.04 0.02 0.06 0.17 0.23 0.26 0.38 0.70 0.88 0.84 0.82 0.75 0.66
0.15 0.20 0.27 0.36 0.41 0.47 0.49 0.54 0.60 0.61 0.63 0.60 0.53 0.50 0.51 0.45 0.39 0.34 0.30 0.28 0.29 0.27 0.24 0.23 0.21 0.18 0.12 0.08 0.09 0.08 0.03 0.01 0.03 0.07 0.12 0.19 0.41 0.78 0.98 0.97 0.98 0.89 0.77
0.13 0.19 0.27 0.38 0.47 0.50 0.51 0.54 0.59 0.61 0.62 0.62 0.57 0.52 0.50 0.52 0.47 0.41 0.38 0.38 0.34 0.30 0.29 0.28 0.28 0.24 0.23 0.23 0.24 0.20 0.13 0.09 0.05 0.03 0.04 0.10 0.24 0.52 0.83 0.98 1.03 1.03 0.97
0.16 0.22 0.30 0.41 0.49 0.51 0.50 0.50 0.52 0.53 0.53 0.55 0.55 0.56 0.56 0.56 0.52 0.49 0.46 0.47 0.46 0.42 0.37 0.34 0.29 0.27 0.25 0.24 0.24 0.24 0.23 0.22 0.14 0.09 0.06 0.07 0.11 0.19 0.40 0.66 0.90 1.02 1.09
0.18 0.25 0.36 0.43 0.50 0.55 0.55 0.54 0.53 0.50 0.48 0.50 0.52 0.55 0.50 0.43 0.39 0.36 0.35 0.33 0.31 0.30 0.28 0.27 0.25 0.22 0.21 0.19 0.18 0.18 0.21 0.23 0.21 0.17 0.15 0.13 0.10 0.11 0.18 0.33 0.58 0.84 1.04
0.22 0.28 0.40 0.47 0.52 0.58 0.56 0.55 0.53 0.51 0.50 0.53 0.52 0.48 0.45 0.37 0.31 0.26 0.25 0.23 0.20 0.19 0.17 0.15 0.13 0.13 0.12 0.12 0.11 0.12 0.14 0.17 0.19 0.19 0.20 0.22 0.17 0.14 0.16 0.23 0.36 0.60 0.91
0.24 0.32 0.41 0.49 0.58 0.63 0.62 0.60 0.59 0.58 0.55 0.54 0.53 0.50 0.47 0.40 0.32 0.27 0.25 0.22 0.19 0.18 0.17 0.15 0.13 0.10 0.09 0.07 0.06 0.07 0.08 0.09 0.12 0.15 0.18 0.22 0.23 0.20 0.18 0.22 0.29 0.44 0.74
0.28 0.37 0.44 0.53 0.62 0.68 0.69 0.69 0.65 0.64 0.63 0.60 0.56 0.55 0.50 0.44 0.37 0.31 0.27 0.25 0.22 0.22 0.20 0.19 0.16 0.13 0.10 0.08 0.07 0.06 0.08 0.08 0.07 0.09 0.14 0.16 0.19 0.21 0.20 0.21 0.29 0.43 0.61
0.28 0.38 0.47 0.53 0.63 0.71 0.77 0.77 0.74 0.67 0.68 0.67 0.62 0.57 0.54 0.48 0.42 0.37 0.31 0.28 0.27 0.29 0.27 0.23 0.21 0.18 0.14 0.10 0.09 0.07 0.06 0.06 0.06 0.09 0.11 0.15 0.17 0.18 0.21 0.21 0.25 0.35 0.48
0.27 0.36 0.48 0.57 0.70 0.78 0.90 0.95 0.93 0.84 0.75 0.73 0.69 0.61 0.54 0.51 0.46 0.42 0.38 0.33 0.31 0.31 0.30 0.26 0.23 0.20 0.18 0.15 0.13 0.09 0.05 0.04 0.04 0.06 0.08 0.13 0.16 0.17 0.19 0.24 0.27 0.25 0.27
0.32 0.38 0.47 0.59 0.73 0.86 0.93 1.02 0.97 0.90 0.77 0.74 0.73 0.67 0.60 0.54 0.52 0.47 0.41 0.38 0.34 0.31 0.27 0.24 0.24 0.24 0.20 0.16 0.16 0.13 0.09 0.05 0.04 0.05 0.08 0.13 0.17 0.23 0.29 0.34 0.41 0.38 0.30
0.35 0.38 0.43 0.55 0.65 0.80 0.88 0.91 0.97 0.91 0.82 0.74 0.74 0.72 0.64 0.56 0.57 0.56 0.48 0.40 0.36 0.33 0.30 0.26 0.23 0.24 0.24 0.21 0.22 0.23 0.16 0.09 0.06 0.06 0.07 0.11 0.18 0.28 0.39 0.44 0.49 0.50 0.46
0.36 0.39 0.41 0.49 0.55 0.67 0.88 1.02 1.14 1.19 1.06 0.90 0.82 0.76 0.65 0.59 0.54 0.57 0.55 0.48 0.39 0.35 0.33 0.28 0.24 0.23 0.24 0.20 0.21 0.37 0.42 0.24 0.10 0.04 0.04 0.06 0.09 0.13 0.20 0.29 0.36 0.41 0.47
0.29 0.38 0.47 0.48 0.53 0.63 0.82 1.03 1.13 1.22 1.11 0.87 0.73 0.75 0.71 0.63 0.57 0.53 0.57 0.54 0.48 0.39 0.34 0.30 0.26 0.24 0.28 0.28 0.21 0.22 0.31 0.32 0.33 0.17 0.05 0.04 0.04 0.05 0.06 0.10 0.16 0.23 0.34
0.28 0.37 0.48 0.54 0.57 0.64 0.76 0.92 1.06 1.18 1.15 1.01 0.88 0.81 0.77 0.73 0.66 0.57 0.54 0.57 0.53 0.46 0.37 0.31 0.28 0.27 0.29 0.33 0.31 0.25 0.21 0.19 0.22 0.31 0.15 0.05 0.06 0.05 0.04 0.05 0.07 0.11 0.17
0.31 0.38 0.49 0.60 0.61 0.65 0.72 0.84 0.94 1.07 1.21 1.19 1.09 0.98 0.87 0.81 0.75 0.70 0.58 0.56 0.54 0.50 0.43 0.35 0.31 0.30 0.29 0.30 0.31 0.31 0.33 0.32 0.24 0.29 0.24 0.09 0.05 0.05 0.05 0.05 0.06 0.08 0.11